STARLINK-35965

Last updated on Wed Dec 31 2025 00:02:06 GMT+0000 (Coordinated Universal Time)

1 66631U 25271Q 25364.57512155 .00054827 00000+0 13679-2 0 9993 2 66631 53.1603 102.4775 0001702 76.5035 283.6159 15.39685512 6964
UTC large
Height (km)
Speed (km/s)
/
Latitude / Longitude
Inclination (degrees)
Orbital Period (minutes)
Azimuth
Elevation
Range (km)
Doppler Factor

Next 0 passes for location: London (51.5072 / 0.1276)

Sorry there are no passes over London.